Saginaw, MI

6:07 AM EDT on March 25, 2017 (GMT -0400)
MBS International

Weather History for KMBS - April, 2014

Change the Weather History Date:

Sunday, April 13, 2014

  Actual Average Record
Temperature  
Mean Temperature 58 °F 45 °F  
Max Temperature 67 °F 55 °F 72 °F (1998)
Min Temperature 48 °F 35 °F 26 °F (2009)
Degree Days  
Heating Degree Days 7    
Month to date heating degree days 254  
Since 1 July heating degree days 7069  
Cooling Degree Days 0    
Month to date cooling degree days 0  
Year to date cooling degree days 0  
Growing Degree Days 8 (Base 50)    
Moisture  
Dew Point 53 °F    
Average Humidity 80    
Maximum Humidity 93    
Minimum Humidity 67    
Precipitation  
Precipitation 0.64 in 0.10 in 0.64 in (2014)
Month to date precipitation 2.38 1.18  
Year to date precipitation 7.19 6.56  
Snow  
Snow 0.00 in - - ()
Month to date snowfall 0.0  
Since 1 July snowfall 58.9  
Snow Depth 0.00 in    
Sea Level Pressure  
Sea Level Pressure 29.73 in    
Wind  
Wind Speed 9 mph (ESE)    
Max Wind Speed 22 mph    
Max Gust Speed 29 mph    
Visibility 8 miles    
Events Rain , Thunderstorm    
T = Trace of Precipitation, MM = Missing Value Source: NWS Daily Summary

Daily Weather History Graph

Daily Weather History Graph

Search for Another Location

Airport or City:

Trip Planner

Search our weather history database for the weather conditions in past years. The results will help you decide how hot, cold, wet, or windy it might be!

Date:

Astronomy

Apr. 13, 2014 Rise Set
Actual Time 6:57 AM EDT 8:17 PM EDT
Civil Twilight 6:27 AM EDT 8:47 PM EDT
Nautical Twilight 5:51 AM EDT 9:22 PM EDT
Astronomical Twilight 5:14 AM EDT 10:00 PM EDT
Moon 6:52 PM EDT (4/13) 5:58 AM EDT (4/13)
Length of Visible Light 14h 19m
Length of Day
13h 20m
Waxing Gibbous, 97% of the Moon is Illuminated
Apr 13
Waxing Gibbous
Apr 15
Full
Apr 22
Last Quarter
Apr 29
New
May 6
First Quarter

Hourly Weather History & Observations

Time (EDT) Temp. Dew Point Humidity Pressure Visibility Wind Dir Wind Speed Gust Speed Precip Events Conditions
12:14 AM 51.1 °F 48.0 °F 89% 29.87 in 4.0 mi SSE 17.3 mph - 0.10 in Rain Heavy Rain
12:53 AM 51.1 °F 48.0 °F 89% 29.82 in 8.0 mi SE 20.7 mph - 0.21 in Rain Light Rain
1:53 AM 53.1 °F 48.9 °F 86% 29.79 in 10.0 mi SSE 15.0 mph - 0.06 in Rain Light Rain
2:53 AM 51.1 °F 48.0 °F 89% 29.81 in 10.0 mi North 4.6 mph - 0.00 in   Overcast
3:53 AM 50.0 °F 48.0 °F 93% 29.79 in 7.0 mi Calm Calm - N/A   Overcast
4:53 AM 51.1 °F 48.0 °F 89% 29.80 in 8.0 mi NNE 6.9 mph - N/A   Overcast
5:53 AM 50.0 °F 48.0 °F 93% 29.76 in 8.0 mi ESE 9.2 mph - N/A   Overcast
6:53 AM 50.0 °F 46.9 °F 89% 29.76 in 9.0 mi SE 6.9 mph - N/A   Overcast
7:53 AM 50.0 °F 46.9 °F 89% 29.75 in 7.0 mi ESE 6.9 mph - 0.00 in Rain Light Rain
8:53 AM 52.0 °F 48.0 °F 86% 29.71 in 8.0 mi SSE 10.4 mph - 0.00 in   Clear
9:53 AM 57.0 °F 51.1 °F 81% 29.70 in 10.0 mi South 16.1 mph 20.7 mph N/A   Scattered Clouds
10:53 AM 61.0 °F 54.0 °F 78% 29.73 in 10.0 mi SW 9.2 mph - N/A   Overcast
11:41 AM 62.1 °F 55.0 °F 78% 29.72 in 10.0 mi SW 9.2 mph - N/A   Overcast
11:53 AM 63.0 °F 55.0 °F 75% 29.72 in 10.0 mi SW 10.4 mph - N/A   Overcast
12:07 PM 63.0 °F 55.0 °F 75% 29.72 in 10.0 mi SW 10.4 mph - N/A   Overcast
12:53 PM 64.0 °F 55.0 °F 73% 29.73 in 10.0 mi SW 10.4 mph - N/A   Overcast
1:38 PM 66.0 °F 57.0 °F 73% 29.72 in 10.0 mi West 13.8 mph - N/A   Mostly Cloudy
1:53 PM 66.9 °F 57.9 °F 73% 29.73 in 10.0 mi West 15.0 mph - N/A   Mostly Cloudy
2:53 PM 64.9 °F 55.9 °F 73% 29.75 in 10.0 mi West 16.1 mph - N/A   Clear
3:53 PM 66.0 °F 55.9 °F 70% 29.74 in 10.0 mi West 11.5 mph - N/A   Partly Cloudy
4:53 PM 64.9 °F 55.0 °F 70% 29.75 in 10.0 mi NW 8.1 mph - N/A   Mostly Cloudy
5:53 PM 64.0 °F 54.0 °F 70% 29.73 in 10.0 mi North 9.2 mph - N/A   Mostly Cloudy
6:53 PM 60.1 °F 55.0 °F 83% 29.74 in 10.0 mi ENE 3.5 mph - 0.01 in Rain , Thunderstorm Light Thunderstorms and Rain
7:16 PM 59.0 °F 55.0 °F 87% 29.74 in 9.0 mi NE 3.5 mph - 0.04 in Rain Light Rain
7:38 PM 57.9 °F 55.0 °F 90% 29.74 in 2.5 mi ENE 6.9 mph - 0.12 in Rain , Thunderstorm Heavy Rain
7:53 PM 57.0 °F 54.0 °F 89% 29.72 in 2.5 mi ENE 9.2 mph - 0.18 in Rain Rain
8:22 PM 57.0 °F 54.0 °F 89% 29.72 in 7.0 mi East 8.1 mph - 0.01 in Rain Light Rain
8:53 PM 55.9 °F 53.1 °F 90% 29.72 in 9.0 mi NE 5.8 mph - 0.03 in Rain Light Rain
9:53 PM 55.9 °F 53.1 °F 90% 29.68 in 3.0 mi ENE 8.1 mph - 0.04 in Rain Light Rain
10:09 PM 55.9 °F 54.0 °F 93% 29.67 in 3.0 mi ENE 8.1 mph - 0.05 in Rain Light Rain
10:53 PM 55.9 °F 54.0 °F 93% 29.65 in 2.5 mi East 9.2 mph - 0.21 in Rain Heavy Rain
10:59 PM 55.9 °F 54.0 °F 93% 29.64 in 3.0 mi East 10.4 mph - 0.01 in Rain , Thunderstorm Rain
11:18 PM 55.9 °F 54.0 °F 93% 29.64 in 6.0 mi East 12.7 mph - 0.03 in Rain Light Rain
11:53 PM 55.9 °F 54.0 °F 93% 29.60 in 8.0 mi East 11.5 mph - 0.09 in Rain Light Rain